Flag for U.S.A. Weather past 2 weeks in Harrisburg, Pennsylvania, U.S.A.

Now
87 °F

Sunny.


Feels Like: 88 °F
Forecast: 70 / 89 °F
Wind: 6 mph from Northwest

Location: Capital City Airport

Current Time: Sep 1, 2015 at 6:45:45 PM

Latest Report: Sep 1, 2015 at 5:56 PM


Visibility: 10 mi

Pressure: 30.01 "Hg

Humidity: 43%

Dew point: 62 °F

Location of HarrisburgLocation

Historic Weather in Harrisburg — Graph

°F

Harrisburg temperature yesterday

Maximum temperature yesterday: 89 °F (at 1:56 PM)
Minimum temperature yesterday: 72 °F (at 5:56 AM)
Average temperature yesterday: 79 °F

Past Weeks' High & Low Weather Summary

 TemperatureHumidityPressure
High92 °F (Aug 17, 4:56 PM)96% (Aug 20, 11:56 PM)30.22 "Hg (Aug 20, 11:56 PM)
Low57 °F (Aug 22, 5:56 AM)32% (Aug 22, 3:56 PM)29.81 "Hg (Aug 24, 3:56 PM)
Average74 °F67%30.03 "Hg
* Reported Aug 17 4:56 PM — Sep 1 4:56 PM, Harrisburg, Weather by CustomWeather, © 2015

Note: Actual official high and low records may vary slightly from our data, if they occured in-between our weather recording intervals... More about our weather records

Advertising

Harrisburg weather history for previous 24 hours

 ConditionsComfort  
Time TempWeatherWind HumidityBarometerVisibility
4:56 PM
Tue, Sep 1
88 °FSunny.5 mph39%30.02 "Hg10 mi
3:56 PM88 °FSunny.7 mph42%30.02 "Hg10 mi
2:56 PM88 °FSunny.9 mph40%30.04 "Hg10 mi
1:56 PM87 °FSunny.9 mph43%30.05 "Hg10 mi
12:56 PM86 °FSunny.9 mph40%30.06 "Hg10 mi
11:56 AM86 °FSunny.8 mph42%30.07 "Hg10 mi
10:56 AM83 °FSunny.7 mph53%30.08 "Hg10 mi
9:56 AM80 °FSunny.6 mph67%30.08 "Hg10 mi
8:56 AM75 °FPassing clouds.3 mph74%30.08 "Hg10 mi
7:56 AM72 °FSunny.5 mph81%30.07 "Hg8 mi
6:56 AM70 °FClear.3 mph84%30.06 "Hg8 mi
5:56 AM70 °FClear.3 mph84%30.04 "Hg10 mi
4:56 AM72 °FClear.5 mph78%30.03 "Hg10 mi
3:56 AM73 °FClear.3 mph76%30.03 "Hg10 mi
2:56 AM73 °FClear.No wind76%30.03 "Hg10 mi
1:56 AM72 °FClear.No wind81%30.03 "Hg10 mi
12:56 AM72 °FClear.No wind81%30.04 "Hg10 mi
10:56 PM
Mon, Aug 31
77 °FClear.No wind69%30.03 "Hg10 mi
9:56 PM77 °FClear.5 mph69%30.02 "Hg10 mi
8:56 PM78 °FClear.5 mph69%30.02 "Hg10 mi
7:56 PM80 °FSunny.5 mph69%30.01 "Hg10 mi
6:56 PM84 °FSunny.6 mph59%30.00 "Hg10 mi
Weather by CustomWeather, © 2015

See weather overviewHow to use our weather pages